Weather History for KASW - January, 2013

Change the Weather History Date:

Sunday, January 6, 2013

  Actual Average Record
Temperature  
Mean Temperature 30 °F -  
Max Temperature 33 °F 31 °F 57 °F (2008)
Min Temperature 26 °F 16 °F -13 °F (2014)
Degree Days  
Heating Degree Days 36    
Moisture  
Dew Point 27 °F    
Average Humidity 85    
Maximum Humidity 93    
Minimum Humidity 74    
Precipitation  
Precipitation 0.00 in - - ()
Sea Level Pressure  
Sea Level Pressure 30.08 in    
Wind  
Wind Speed 11 mph (WSW)    
Max Wind Speed 21 mph    
Max Gust Speed 26 mph    
Visibility 8 miles    
Events Snow    
Averages and records for this station are not official NWS values.
T = Trace of Precipitation, MM = Missing Value Source: NWS Daily Summary

Daily Weather History Graph

Daily Weather History Graph

Search for Another Location

Airport or City:

Trip Planner

Search our weather history database for the weather conditions in past years. The results will help you decide how hot, cold, wet, or windy it might be!

Date:

Astronomy

Jan. 06, 2013 Rise Set
Actual Time 8:09 AM EST 5:29 PM EST
Civil Twilight 7:38 AM EST 6:00 PM EST
Nautical Twilight 7:03 AM EST 6:35 PM EST
Astronomical Twilight 6:30 AM EST 7:08 PM EST
Moon 2:21 AM EST (1/6) 12:57 PM EST (1/6)
Length of Visible Light 10h 22m
Length of Day
9h 20m
Waning Crescent, 33% of the Moon is Illuminated
Jan 6
Waning Crescent
Jan 11
New
Jan 18
First Quarter
Jan 26
Full
Feb 3
Last Quarter

Hourly Weather History & Observations

Time (EST) Temp. Windchill Dew Point Humidity Pressure Visibility Wind Dir Wind Speed Gust Speed Precip Events Conditions
12:15 AM 33.8 °F 27.0 °F 28.4 °F 81% 30.04 in 10.0 mi SW 8.1 mph 16.1 mph N/A   Overcast
12:35 AM 33.8 °F 27.0 °F 28.4 °F 81% 30.03 in 10.0 mi SW 8.1 mph 17.3 mph N/A   Overcast
12:55 AM 33.8 °F 26.4 °F 28.4 °F 81% 30.02 in 10.0 mi SW 9.2 mph 19.6 mph N/A   Overcast
1:15 AM 33.8 °F 26.4 °F 30.2 °F 87% 30.01 in 7.0 mi SW 9.2 mph - N/A   Overcast
1:35 AM 33.8 °F 27.0 °F 30.2 °F 87% 30.01 in 5.0 mi SW 8.1 mph 17.3 mph N/A Snow Light Snow
1:55 AM 32.0 °F 24.2 °F 30.2 °F 93% 30.00 in 5.0 mi WSW 9.2 mph 17.3 mph N/A   Light Drizzle
2:15 AM 32.0 °F 24.8 °F 30.2 °F 93% 29.99 in 7.0 mi SW 8.1 mph - N/A   Overcast
2:35 AM 33.8 °F 27.0 °F 30.2 °F 87% 29.99 in 10.0 mi SW 8.1 mph - N/A   Overcast
2:55 AM 33.8 °F 27.7 °F 30.2 °F 87% 29.99 in 10.0 mi SW 6.9 mph - N/A   Overcast
3:15 AM 33.8 °F 27.0 °F 30.2 °F 87% 29.98 in 10.0 mi SSW 8.1 mph - N/A   Overcast
3:35 AM 33.8 °F 26.4 °F 30.2 °F 87% 29.98 in 10.0 mi SW 9.2 mph - N/A   Overcast
3:55 AM 33.8 °F 26.4 °F 30.2 °F 87% 29.98 in 10.0 mi SW 9.2 mph 18.4 mph N/A   Overcast
4:15 AM 33.8 °F 28.6 °F 30.2 °F 87% 29.97 in 10.0 mi SW 5.8 mph - N/A   Overcast
4:35 AM 33.8 °F 27.0 °F 30.2 °F 87% 29.96 in 10.0 mi SW 8.1 mph - N/A   Overcast
5:15 AM 33.8 °F 27.7 °F 30.2 °F 87% 29.95 in 10.0 mi SW 6.9 mph - N/A   Overcast
5:35 AM 33.8 °F 27.7 °F 30.2 °F 87% 29.95 in 10.0 mi SW 6.9 mph 16.1 mph N/A   Overcast
5:55 AM 33.8 °F 26.4 °F 30.2 °F 87% 29.94 in 10.0 mi SW 9.2 mph - N/A   Overcast
6:15 AM 33.8 °F 26.4 °F 30.2 °F 87% 29.94 in 10.0 mi SW 9.2 mph - N/A   Overcast
6:55 AM 33.8 °F 25.3 °F 30.2 °F 87% 29.95 in 10.0 mi WSW 11.5 mph - N/A   Overcast
7:15 AM 33.8 °F 25.8 °F 30.2 °F 87% 29.95 in 10.0 mi WSW 10.4 mph 17.3 mph N/A   Overcast
7:35 AM 33.8 °F 24.3 °F 30.2 °F 87% 29.95 in 10.0 mi WSW 13.8 mph 20.7 mph N/A   Overcast
7:55 AM 33.8 °F 24.3 °F 30.2 °F 87% 29.94 in 10.0 mi WSW 13.8 mph - N/A   Overcast
8:15 AM 33.8 °F 25.3 °F 32.0 °F 93% 29.95 in 10.0 mi WSW 11.5 mph 18.4 mph N/A   Overcast
8:35 AM 33.8 °F 25.3 °F 32.0 °F 93% 29.95 in 10.0 mi WSW 11.5 mph 17.3 mph N/A   Overcast
9:15 AM 33.8 °F 23.9 °F 32.0 °F 93% 29.96 in 5.0 mi West 15.0 mph 18.4 mph N/A   Overcast
9:35 AM 33.8 °F 24.3 °F 32.0 °F 93% 29.97 in 7.0 mi WSW 13.8 mph - N/A   Overcast
9:55 AM 33.8 °F 24.3 °F 30.2 °F 87% 29.97 in 7.0 mi West 13.8 mph - N/A   Overcast
10:15 AM 33.8 °F 24.3 °F 30.2 °F 87% 29.98 in 10.0 mi West 13.8 mph 18.4 mph N/A   Overcast
10:35 AM 32.0 °F 20.1 °F 28.4 °F 87% 29.99 in 10.0 mi West 19.6 mph 23.0 mph N/A   Overcast
10:55 AM 30.2 °F 18.1 °F 24.8 °F 80% 30.01 in 10.0 mi West 18.4 mph 26.5 mph N/A   Overcast
11:15 AM 30.2 °F 18.9 °F 23.0 °F 75% 30.02 in 10.0 mi West 16.1 mph 20.7 mph N/A   Overcast
11:35 AM 28.4 °F 15.1 °F 23.0 °F 80% 30.03 in 10.0 mi WNW 20.7 mph - N/A   Overcast
12:15 PM 28.4 °F 15.8 °F 23.0 °F 80% 30.04 in 7.0 mi West 18.4 mph 21.9 mph N/A   Overcast
12:35 PM 26.6 °F 14.3 °F 21.2 °F 80% 30.04 in 7.0 mi West 16.1 mph - N/A   Overcast
12:55 PM 28.4 °F 18.5 °F 21.2 °F 74% 30.04 in 7.0 mi West 11.5 mph - N/A   Overcast
1:15 PM 26.6 °F 16.2 °F 21.2 °F 80% 30.04 in 7.0 mi West 11.5 mph - N/A   Overcast
1:35 PM 26.6 °F 14.3 °F 21.2 °F 80% 30.04 in 5.0 mi West 16.1 mph - N/A   Haze
1:55 PM 26.6 °F 15.2 °F 21.2 °F 80% 30.05 in 5.0 mi West 13.8 mph 18.4 mph N/A   Haze
2:15 PM 26.6 °F 17.5 °F 21.2 °F 80% 30.05 in 5.0 mi West 9.2 mph 18.4 mph N/A   Haze
2:35 PM 26.6 °F 14.3 °F 21.2 °F 80% 30.06 in 5.0 mi West 16.1 mph - N/A   Haze
2:55 PM 26.6 °F 15.2 °F 21.2 °F 80% 30.08 in 5.0 mi West 13.8 mph - N/A   Haze
3:15 PM 26.6 °F 14.7 °F 21.2 °F 80% 30.09 in 7.0 mi West 15.0 mph - N/A   Overcast
3:35 PM 26.6 °F 14.7 °F 21.2 °F 80% 30.10 in 5.0 mi West 15.0 mph - N/A   Haze
3:55 PM 26.6 °F 16.2 °F 21.2 °F 80% 30.11 in 7.0 mi West 11.5 mph - N/A   Overcast
4:15 PM 26.6 °F 16.2 °F 21.2 °F 80% 30.13 in 5.0 mi West 11.5 mph - N/A   Haze
4:35 PM 28.4 °F 18.0 °F 23.0 °F 80% 30.13 in 5.0 mi West 12.7 mph 17.3 mph N/A   Haze
4:55 PM 28.4 °F 18.0 °F 23.0 °F 80% 30.14 in 5.0 mi West 12.7 mph 17.3 mph N/A   Haze
5:15 PM 28.4 °F 18.0 °F 23.0 °F 80% 30.15 in 7.0 mi West 12.7 mph 16.1 mph N/A   Overcast
5:55 PM 28.4 °F 18.5 °F 23.0 °F 80% 30.17 in 7.0 mi West 11.5 mph - N/A   Overcast
6:15 PM 28.4 °F 19.1 °F 24.8 °F 86% 30.18 in 7.0 mi West 10.4 mph - N/A   Overcast
6:35 PM 30.2 °F 19.3 °F 24.8 °F 80% 30.19 in 7.0 mi West 15.0 mph - N/A   Overcast
6:55 PM 30.2 °F 19.3 °F 26.6 °F 86% 30.20 in 10.0 mi West 15.0 mph - N/A   Overcast
7:15 PM 30.2 °F 20.8 °F 26.6 °F 86% 30.22 in 10.0 mi West 11.5 mph - N/A   Overcast
7:35 PM 30.2 °F 21.9 °F 26.6 °F 86% 30.23 in 10.0 mi West 9.2 mph - N/A   Overcast
7:55 PM 30.2 °F 19.8 °F 26.6 °F 86% 30.24 in 10.0 mi West 13.8 mph - N/A   Overcast
8:15 PM 30.2 °F 20.8 °F 26.6 °F 86% 30.25 in 10.0 mi West 11.5 mph 17.3 mph N/A   Overcast
8:35 PM 30.2 °F 20.2 °F 26.6 °F 86% 30.26 in 10.0 mi West 12.7 mph - N/A   Overcast
8:55 PM 30.2 °F 21.9 °F 26.6 °F 86% 30.26 in 10.0 mi West 9.2 mph - N/A   Overcast
9:15 PM 30.2 °F 20.8 °F 26.6 °F 86% 30.27 in 10.0 mi West 11.5 mph - N/A   Overcast
9:35 PM 30.2 °F 21.9 °F 26.6 °F 86% 30.28 in 10.0 mi West 9.2 mph - N/A   Overcast
9:55 PM 30.2 °F 21.3 °F 26.6 °F 86% 30.28 in 10.0 mi West 10.4 mph - N/A   Overcast
10:15 PM 30.2 °F 21.9 °F 26.6 °F 86% 30.29 in 10.0 mi West 9.2 mph - N/A   Overcast
10:35 PM 30.2 °F 20.8 °F 26.6 °F 86% 30.30 in 10.0 mi West 11.5 mph - N/A   Overcast
10:55 PM 30.2 °F 20.8 °F 26.6 °F 86% 30.30 in 10.0 mi West 11.5 mph - N/A   Overcast
11:15 PM 30.2 °F 21.9 °F 26.6 °F 86% 30.31 in 10.0 mi West 9.2 mph - N/A   Overcast
11:35 PM 30.2 °F 21.9 °F 26.6 °F 86% 30.31 in 10.0 mi West 9.2 mph - N/A   Overcast
11:55 PM 30.2 °F 24.3 °F 26.6 °F 86% 30.32 in 10.0 mi West 5.8 mph - N/A   Overcast